Temp
-8 -8 -7 -7 -8 -8 -8 -8 -9 -8 -8 -9 -10 -10 -10 -9 -9 -9 -9 -9 -9 -9 -9 -9 -9 -9 -9 -8 -8 -8 -8 -8 -8 -10 -10 -11 -11 -12 -12 -12 -11 -11 -11
-8 -8 -8 -8 -8 -9 -9 -9 -9 -9 -9 -10 -10 -9 -9 -10 -10 -9 -9 -9 -9 -9 -9 -9 -9 -9 -9 -9 -9 -8 -8 -8 -8 -8 -11 -12 -12 -12 -12 -13 -12 -12 -11
-8 -8 -8 -8 -8 -9 -8 -9 -10 -10 -9 -10 -11 -11 -10 -10 -10 -10 -10 -10 -10 -10 -10 -9 -10 -10 -9 -9 -9 -9 -9 -8 -8 -9 -11 -12 -13 -13 -13 -13 -13 -13 -13
-9 -9 -9 -9 -9 -9 -9 -9 -9 -11 -11 -10 -10 -10 -11 -11 -10 -10 -10 -11 -10 -10 -10 -10 -10 -9 -9 -10 -10 -10 -9 -9 -10 -11 -12 -12 -13 -13 -12 -12 -13 -14 -14
-9 -9 -9 -9 -9 -9 -10 -10 -10 -9 -9 -10 -10 -10 -10 -11 -11 -11 -11 -11 -11 -11 -11 -10 -10 -10 -9 -11 -10 -10 -10 -10 -11 -12 -12 -13 -13 -13 -13 -13 -14 -14 -14
-9 -9 -9 -9 -9 -9 -10 -10 -10 -10 -9 -9 -10 -9 -11 -11 -10 -10 -11 -11 -11 -11 -11 -12 -11 -10 -10 -11 -11 -11 -10 -10 -12 -12 -13 -13 -13 -15 -14 -14 -14 -14 -14
-8 -8 -9 -9 -9 -9 -9 -10 -10 -10 -9 -9 -9 -10 -11 -10 -11 -11 -11 -12 -12 -12 -11 -11 -12 -11 -11 -11 -11 -11 -10 -12 -12 -12 -13 -13 -13 -15 -14 -14 -14 -14 -14
-8 -8 -9 -9 -10 -10 -10 -10 -9 -10 -9 -9 -10 -10 -11 -11 -12 -12 -11 -11 -12 -12 -11 -12 -11 -11 -11 -11 -11 -11 -12 -13 -12 -13 -13 -13 -14 -14 -14 -14 -14 -14 -14
-9 -9 -9 -10 -10 -10 -10 -10 -9 -9 -9 -9 -10 -10 -11 -11 -11 -11 -12 -11 -12 -11 -12 -12 -12 -12 -12 -12 -12 -12 -13 -13 -13 -14 -14 -14 -14 -14 -14 -14 -15 -14 -13
-9 -9 -10 -9 -10 -9 -9 -9 -9 -9 -9 -10 -11 -10 -10 -11 -11 -11 -11 -12 -12 -12 -12 -11 -12 -12 -13 -12 -12 -13 -13 -13 -14 -14 -14 -14 -15 -15 -15 -15 -14 -14 -14
-10 -10 -10 -10 -9 -10 -10 -10 -10 -10 -9 -10 -10 -10 -10 -11 -11 -12 -12 -11 -11 -12 -13 -12 -12 -13 -13 -13 -13 -13 -14 -14 -14 -14 -15 -15 -15 -15 -16 -15 -15 -15 -15
-10 -10 -10 -9 -10 -10 -10 -10 -11 -10 -9 -10 -10 -11 -11 -12 -12 -12 -12 -12 -13 -13 -14 -13 -13 -14 -14 -14 -14 -14 -14 -14 -14 -14 -15 -15 -15 -16 -16 -15 -15 -15 -16
-10 -9 -9 -9 -11 -11 -10 -10 -10 -11 -10 -11 -11 -11 -11 -13 -13 -12 -12 -13 -14 -14 -14 -14 -14 -14 -14 -14 -15 -15 -15 -15 -15 -15 -15 -16 -15 -15 -15 -15 -15 -15 -16
-9 -9 -9 -10 -10 -11 -11 -10 -10 -11 -11 -11 -10 -10 -12 -13 -13 -13 -13 -13 -13 -14 -14 -14 -14 -14 -15 -15 -15 -15 -15 -15 -15 -16 -16 -16 -16 -16 -15 -15 -15 -15 -15
-9 -9 -10 -10 -10 -11 -10 -10 -10 -11 -11 -11 -12 -12 -11 -13 -13 -13 -13 -13 -13 -14 -15 -14 -15 -15 -15 -15 -16 -16 -15 -15 -15 -16 -16 -16 -16 -16 -16 -15 -15 -14 -15
-10 -10 -10 -9 -9 -10 -11 -11 -11 -12 -12 -12 -12 -13 -13 -13 -13 -13 -13 -14 -15 -16 -15 -15 -16 -16 -16 -16 -16 -16 -16 -16 -16 -16 -16 -16 -16 -16 -16 -15 -15 -15 -15
-10 -10 -10 -10 -10 -10 -11 -12 -12 -12 -13 -13 -13 -13 -13 -13 -14 -14 -15 -16 -16 -16 -16 -16 -16 -16 -16 -17 -17 -17 -16 -16 -17 -16 -16 -16 -16 -16 -16 -15 -15 -15 -15
-10 -10 -10 -10 -11 -11 -12 -12 -13 -13 -13 -13 -13 -14 -14 -14 -15 -15 -16 -16 -16 -16 -16 -16 -17 -17 -17 -17 -17 -17 -17 -17 -17 -17 -17 -16 -16 -16 -16 -15 -15 -15 -15
-11 -11 -11 -11 -11 -12 -12 -12 -12 -13 -13 -13 -14 -14 -15 -15 -15 -16 -16 -16 -16 -17 -17 -17 -17 -17 -17 -17 -17 -17 -17 -17 -17 -17 -17 -17 -17 -16 -16 -16 -15 -15 -15
-12 -12 -12 -12 -12 -13 -13 -13 -14 -14 -14 -14 -14 -15 -15 -15 -15 -15 -15 -16 -16 -17 -17 -17 -17 -17 -17 -17 -17 -17 -17 -17 -17 -17 -17 -17 -17 -17 -16 -16 -16 -15 -15
-12 -12 -12 -13 -14 -14 -14 -14 -15 -14 -14 -15 -15 -15 -15 -15 -15 -15 -16 -16 -17 -17 -17 -18 -18 -18 -18 -18 -18 -18 -18 -18 -18 -17 -17 -17 -17 -17 -17 -16 -16 -15 -15
-13 -14 -14 -14 -15 -15 -15 -15 -15 -15 -15 -15 -15 -15 -15 -15 -15 -16 -16 -17 -17 -17 -18 -18 -18 -18 -18 -18 -18 -18 -18 -18 -18 -18 -18 -17 -17 -17 -17 -17 -16 -16 -15
-14 -14 -14 -15 -15 -15 -15 -15 -16 -15 -15 -15 -16 -15 -16 -16 -16 -16 -17 -17 -18 -18 -18 -18 -18 -18 -18 -18 -18 -18 -18 -18 -18 -18 -18 -18 -17 -17 -17 -17 -16 -16 -15
-15 -15 -15 -15 -15 -15 -16 -16 -15 -15 -16 -15 -16 -16 -16 -16 -16 -16 -17 -18 -18 -18 -18 -19 -19 -18 -18 -18 -18 -18 -19 -19 -19 -19 -19 -18 -18 -18 -18 -17 -17 -16 -16
-15 -15 -16 -15 -16 -16 -16 -16 -16 -16 -16 -16 -16 -16 -16 -16 -16 -16 -16 -17 -18 -18 -18 -18 -18 -19 -19 -19 -19 -19 -19 -19 -19 -19 -19 -19 -19 -19 -18 -18 -18 -17 -16
-15 -15 -15 -16 -15 -15 -16 -16 -16 -16 -16 -16 -16 -16 -16 -16 -16 -17 -16 -16 -17 -18 -18 -18 -18 -19 -19 -19 -19 -19 -19 -19 -19 -19 -19 -19 -19 -19 -19 -19 -19 -18 -17
Height
5887 5887 5886 5885 5883 5880 5879 5878 5876 5874 5873 5873 5873 5870 5868 5866 5864 5862 5860 5857 5855 5853 5849 5847 5843 5841 5839 5836 5833 5829 5824 5821 5818 5812 5807 5803 5798 5792 5789 5786 5783 5783 5782
5884 5883 5881 5880 5878 5875 5872 5872 5867 5866 5865 5864 5865 5864 5861 5860 5857 5855 5853 5850 5848 5845 5841 5840 5837 5834 5831 5828 5822 5818 5816 5811 5807 5801 5794 5790 5787 5778 5773 5772 5768 5766 5767
5878 5876 5874 5872 5871 5871 5869 5867 5863 5862 5857 5854 5854 5855 5853 5851 5850 5848 5845 5843 5841 5838 5834 5831 5829 5825 5822 5820 5814 5808 5803 5799 5794 5787 5782 5777 5773 5768 5762 5759 5756 5753 5752
5873 5872 5870 5868 5865 5862 5860 5857 5852 5848 5848 5843 5845 5845 5843 5842 5839 5839 5836 5833 5831 5829 5825 5825 5821 5816 5814 5808 5802 5796 5791 5786 5780 5774 5770 5765 5759 5753 5750 5745 5743 5738 5738
5869 5868 5866 5863 5859 5854 5850 5845 5839 5837 5831 5832 5836 5834 5834 5832 5831 5828 5825 5823 5821 5817 5816 5815 5812 5806 5801 5797 5792 5785 5779 5773 5766 5761 5755 5750 5744 5740 5734 5732 5729 5726 5725
5863 5861 5859 5856 5852 5847 5841 5838 5832 5825 5824 5822 5822 5821 5821 5821 5819 5817 5814 5810 5808 5803 5802 5802 5799 5795 5791 5786 5780 5773 5768 5761 5754 5747 5740 5736 5730 5727 5721 5718 5715 5713 5713
5856 5855 5852 5849 5846 5840 5836 5830 5826 5823 5819 5819 5814 5810 5814 5813 5809 5807 5801 5798 5794 5794 5792 5790 5787 5785 5778 5773 5766 5760 5754 5747 5742 5736 5729 5723 5719 5715 5711 5707 5704 5701 5701
5847 5846 5843 5841 5837 5834 5828 5824 5819 5817 5812 5807 5807 5804 5804 5802 5798 5795 5790 5785 5785 5784 5782 5780 5776 5771 5766 5760 5755 5749 5741 5735 5729 5724 5719 5713 5708 5705 5702 5696 5693 5691 5689
5837 5836 5834 5832 5828 5824 5820 5814 5812 5808 5804 5801 5798 5792 5792 5791 5790 5786 5780 5778 5776 5775 5772 5767 5764 5760 5754 5747 5744 5737 5730 5723 5718 5713 5707 5702 5698 5694 5690 5685 5682 5678 5675
5827 5826 5824 5822 5820 5815 5810 5806 5802 5798 5793 5785 5784 5780 5779 5779 5778 5775 5772 5768 5766 5764 5763 5757 5752 5748 5742 5737 5731 5726 5720 5713 5706 5701 5697 5693 5688 5683 5679 5673 5670 5666 5658
5817 5816 5814 5812 5808 5805 5800 5795 5791 5788 5780 5774 5767 5774 5769 5767 5768 5765 5764 5760 5756 5753 5750 5746 5741 5736 5732 5726 5720 5715 5710 5703 5697 5692 5687 5683 5678 5673 5670 5665 5658 5649 5641
5805 5804 5801 5800 5797 5792 5789 5783 5779 5776 5774 5768 5765 5762 5761 5762 5757 5753 5749 5747 5744 5741 5738 5735 5730 5724 5719 5714 5708 5704 5698 5693 5688 5683 5677 5672 5667 5665 5662 5658 5651 5643 5633
5797 5791 5787 5783 5784 5779 5776 5772 5767 5764 5762 5758 5755 5752 5750 5750 5748 5744 5738 5735 5732 5729 5727 5723 5716 5711 5707 5703 5697 5694 5689 5684 5679 5674 5670 5665 5662 5658 5655 5651 5645 5638 5628
5785 5779 5774 5771 5770 5768 5766 5762 5757 5754 5751 5750 5745 5738 5736 5735 5735 5732 5729 5725 5721 5718 5714 5709 5703 5698 5694 5690 5686 5683 5679 5675 5671 5667 5664 5660 5655 5652 5648 5644 5639 5632 5623
5769 5766 5765 5762 5758 5755 5754 5752 5749 5745 5743 5741 5737 5734 5729 5725 5724 5721 5718 5714 5710 5705 5700 5696 5692 5687 5683 5680 5677 5674 5671 5668 5664 5661 5657 5654 5650 5646 5641 5637 5632 5625 5617
5756 5756 5755 5751 5747 5744 5741 5740 5738 5735 5731 5728 5724 5721 5719 5716 5714 5710 5704 5700 5697 5693 5690 5686 5681 5677 5674 5672 5669 5667 5663 5660 5657 5654 5650 5647 5643 5640 5636 5631 5626 5620 5614
5743 5741 5740 5738 5735 5732 5728 5726 5724 5722 5719 5715 5713 5710 5708 5705 5700 5695 5693 5689 5685 5682 5678 5674 5671 5667 5665 5663 5661 5659 5656 5653 5650 5647 5644 5641 5637 5634 5631 5627 5622 5617 5610
5731 5729 5727 5724 5722 5718 5715 5713 5710 5708 5705 5703 5700 5698 5694 5690 5687 5684 5680 5675 5673 5670 5667 5664 5661 5657 5656 5654 5652 5651 5648 5646 5643 5640 5638 5635 5632 5629 5626 5622 5619 5614 5609
5718 5714 5712 5710 5708 5705 5702 5701 5697 5695 5693 5690 5687 5684 5681 5679 5675 5671 5668 5665 5662 5660 5657 5654 5652 5649 5647 5645 5644 5642 5640 5638 5636 5634 5631 5629 5626 5624 5621 5618 5615 5611 5606
5704 5702 5699 5698 5695 5692 5690 5688 5685 5683 5682 5679 5676 5674 5670 5667 5665 5661 5659 5657 5654 5650 5647 5645 5643 5640 5638 5636 5634 5633 5632 5630 5629 5627 5625 5623 5620 5619 5616 5614 5611 5608 5604
5691 5688 5686 5684 5682 5679 5677 5676 5675 5673 5672 5669 5666 5663 5660 5658 5656 5654 5651 5647 5644 5641 5638 5636 5634 5632 5630 5628 5627 5626 5625 5623 5622 5621 5619 5617 5615 5614 5612 5610 5607 5605 5602
5677 5676 5674 5673 5671 5669 5667 5666 5666 5664 5662 5659 5656 5653 5652 5650 5648 5645 5641 5638 5635 5633 5631 5628 5627 5626 5624 5623 5621 5620 5618 5617 5616 5614 5612 5611 5609 5608 5607 5606 5604 5602 5600
5667 5665 5664 5662 5661 5660 5659 5656 5655 5653 5651 5648 5647 5645 5644 5642 5638 5634 5631 5629 5627 5625 5623 5622 5620 5619 5617 5616 5614 5613 5611 5610 5608 5606 5605 5604 5603 5601 5600 5600 5600 5598 5597
5655 5655 5653 5652 5651 5650 5649 5648 5646 5644 5643 5641 5640 5638 5635 5633 5629 5627 5625 5622 5620 5618 5616 5614 5613 5612 5610 5608 5607 5606 5605 5602 5600 5598 5597 5596 5595 5594 5593 5592 5593 5594 5593
5647 5645 5644 5643 5641 5641 5641 5640 5639 5638 5636 5635 5633 5631 5628 5626 5624 5621 5618 5616 5613 5611 5609 5607 5605 5604 5602 5601 5600 5599 5598 5596 5593 5592 5590 5589 5588 5587 5586 5586 5586 5586 5586
5637 5636 5635 5635 5634 5633 5633 5632 5631 5630 5629 5628 5627 5625 5622 5619 5616 5614 5612 5610 5606 5604 5602 5600 5598 5597 5595 5595 5593 5592 5591 5590 5588 5586 5584 5583 5582 5582 5581 5580 5580 5581 5580
Wind_Speed
7 10 13 19 22 24 25 28 28 29 28 23 22 23 25 25 26 27 28 29 29 27 26 29 29 29 28 33 38 34 35 37 39 39 43 45 48 52 47 46 46 47 49
11 14 18 22 20 26 30 31 37 28 27 27 28 28 28 27 29 29 30 31 31 27 27 23 23 24 31 36 35 37 39 41 43 46 47 47 48 49 47 43 41 41 44
16 18 19 23 26 24 29 33 33 34 34 27 30 32 33 33 31 32 35 34 35 31 31 29 34 38 39 41 38 37 39 42 47 51 50 49 47 48 48 46 44 42 44
18 20 22 25 28 33 35 39 39 34 48 31 29 34 36 33 32 35 35 35 38 35 32 32 34 34 42 42 40 42 42 46 52 51 51 50 47 49 50 49 45 45 46
20 23 25 28 31 37 41 45 48 42 47 36 23 32 37 31 37 36 36 37 37 35 32 35 40 41 48 50 44 44 44 48 52 49 48 47 48 49 51 47 42 40 41
21 24 27 30 35 39 44 42 46 50 60 26 33 30 32 29 37 41 40 40 37 37 30 41 41 42 51 51 45 44 46 50 49 47 46 46 49 47 44 40 38 36 33
25 24 29 33 39 42 43 44 44 44 49 44 46 40 29 33 40 38 40 34 37 41 40 40 39 43 49 46 45 45 48 50 48 46 45 47 49 37 32 34 36 35 35
31 34 37 38 44 47 51 48 44 47 47 38 35 29 34 41 38 33 36 29 37 42 36 33 39 38 40 45 47 48 51 50 50 48 45 46 43 35 35 36 36 37 39
36 38 39 40 46 46 51 52 49 42 39 42 40 35 38 43 30 33 37 25 28 39 35 32 33 37 43 44 44 47 49 48 49 46 45 46 39 35 38 36 37 41 41
44 44 47 49 45 43 47 47 49 47 50 54 46 34 34 37 30 24 27 24 37 38 41 42 38 42 42 43 44 47 46 48 44 47 46 43 40 39 39 41 41 42 47
52 48 54 48 45 40 45 50 53 52 44 48 40 36 39 38 42 33 32 38 44 38 35 39 41 42 41 42 44 45 45 42 43 44 42 42 42 40 40 39 41 46 50
48 50 51 48 44 45 47 49 50 49 43 37 39 39 34 40 37 43 49 46 33 30 34 40 39 39 40 41 41 42 37 39 43 40 40 38 35 33 33 33 37 38 49
58 47 50 55 55 50 51 50 42 31 34 32 34 39 29 30 36 44 47 39 32 31 37 41 39 39 40 41 38 37 37 38 38 34 32 28 26 26 29 31 36 35 43
47 47 52 57 57 47 46 38 35 40 36 39 36 53 42 50 38 38 37 35 34 36 41 37 39 39 40 37 35 34 36 37 33 29 30 29 28 27 30 31 33 33 37
50 52 54 45 41 37 37 42 42 38 44 44 36 43 51 46 38 35 38 42 44 43 41 39 40 38 35 34 34 34 35 34 31 29 30 29 29 30 30 30 30 32 38
51 53 49 48 46 45 42 42 40 44 47 43 43 43 40 36 39 41 42 39 38 38 41 39 37 36 35 34 35 35 33 30 27 26 27 26 26 26 26 27 27 29 35
45 44 45 46 47 49 47 47 45 42 43 43 39 35 36 39 40 37 36 36 39 39 37 35 37 36 35 34 34 34 32 29 28 26 28 28 26 24 24 25 26 28 27
46 49 52 51 48 46 45 45 43 41 38 37 33 35 39 38 36 38 39 38 40 38 37 37 33 32 32 32 33 33 31 29 28 26 25 26 25 22 22 23 22 24 21
46 44 44 45 46 44 44 41 41 38 37 36 39 40 39 39 40 37 35 34 35 34 32 32 30 28 30 31 32 32 31 29 27 26 24 23 22 21 20 21 20 21 21
42 42 42 42 39 41 42 39 35 36 39 40 41 40 37 33 31 29 29 31 30 28 27 25 25 26 28 30 31 31 27 24 23 23 22 21 22 21 20 18 19 18 20
43 44 37 38 39 41 37 36 37 39 40 40 35 29 26 26 30 30 30 28 26 25 24 24 25 25 25 26 25 23 21 20 20 20 20 20 21 21 20 18 17 17 17
36 35 35 33 34 35 36 40 39 37 36 29 23 22 26 28 30 32 33 32 28 25 24 23 23 22 20 20 20 20 20 21 22 23 23 23 23 22 21 18 17 15 15
36 36 38 40 42 43 39 34 31 29 25 20 22 24 27 29 29 29 30 28 27 24 23 22 21 21 22 23 22 22 22 23 24 24 24 24 25 25 23 21 18 16 13
37 38 35 32 34 31 26 25 24 21 20 23 25 24 23 24 25 25 24 23 23 23 22 22 22 22 22 21 21 21 22 24 25 26 26 24 23 23 22 21 20 18 15
28 29 30 29 24 25 22 20 22 23 24 24 21 22 22 23 23 22 23 23 22 22 23 23 23 22 22 22 22 22 22 24 23 22 20 20 18 18 20 20 19 19 18
23 23 24 23 22 22 21 23 24 22 20 21 22 23 22 21 22 22 23 24 23 23 24 24 24 23 22 23 24 24 23 22 22 21 19 19 19 18 18 18 18 17 18
Wind_Direction
315 316 315 323 291 301 313 288 305 297 298 292 287 290 294 300 301 303 303 304 302 303 304 305 306 307 300 306 311 308 308 306 305 301 298 300 298 295 293 286 280 276 272
299 311 314 317 313 297 300 295 291 289 284 293 296 295 298 300 302 305 304 301 300 299 297 298 319 305 311 315 317 316 312 310 306 303 302 301 299 297 293 284 278 278 275
318 323 328 326 320 315 299 297 309 300 284 282 288 292 299 305 301 307 304 303 302 293 295 281 296 308 306 313 311 310 312 307 304 300 300 297 296 293 289 285 282 277 275
309 313 319 315 309 302 303 300 282 286 289 282 286 293 296 307 290 303 307 306 306 293 291 295 302 306 308 311 314 314 311 309 306 303 297 296 295 294 290 285 282 275 270
305 307 303 304 301 301 307 298 287 288 260 267 279 274 288 292 303 301 300 309 306 296 295 299 298 300 309 313 311 312 310 308 304 302 300 300 298 293 288 284 282 275 269
297 299 304 305 297 300 308 306 308 295 281 268 284 298 270 291 296 299 300 303 299 297 281 287 295 291 298 305 313 311 310 304 304 302 302 300 297 295 294 288 282 278 272
287 303 309 307 312 301 304 307 307 300 289 303 287 300 286 286 298 307 305 301 291 292 293 290 294 296 300 308 307 305 302 303 304 304 300 299 298 298 292 287 285 285 280
293 297 303 307 314 308 301 304 305 304 312 304 302 293 291 296 301 311 309 305 297 289 299 298 297 308 309 306 306 306 301 304 307 303 299 295 296 291 292 293 285 287 284
292 298 297 303 307 301 301 299 301 299 300 301 293 288 299 298 292 316 311 309 310 301 292 302 311 306 301 303 301 298 302 304 303 304 301 297 292 290 295 298 293 288 292
293 294 293 293 298 307 302 293 296 300 302 304 289 299 293 287 286 313 309 278 299 296 283 302 302 301 301 299 296 297 299 299 304 304 299 298 296 293 295 300 297 300 310
291 289 292 292 288 300 297 294 293 299 297 302 273 294 308 305 292 290 302 295 292 295 294 294 293 296 297 296 294 294 296 300 301 301 298 297 295 293 294 299 306 314 320
289 296 294 293 295 291 293 296 292 289 286 285 288 298 300 297 288 291 309 305 297 289 288 289 292 293 294 293 292 293 297 300 303 300 301 301 296 292 295 305 312 316 321
285 293 290 294 296 293 294 295 294 288 295 301 291 291 275 308 305 294 294 301 300 288 285 294 297 297 293 291 292 294 298 304 304 301 301 301 300 299 304 310 318 319 327
284 294 295 294 294 291 289 290 289 290 293 297 295 270 259 309 305 299 299 300 305 297 293 293 295 291 288 289 291 295 298 302 301 299 295 295 298 303 309 316 320 321 327
279 281 283 289 291 285 284 286 289 286 291 289 292 289 295 304 302 294 295 298 299 292 286 288 293 291 289 291 292 295 296 302 300 299 296 296 300 301 307 313 319 323 334
281 282 282 286 288 288 286 285 283 285 290 288 294 294 296 298 296 295 294 295 292 292 293 294 295 291 290 292 294 294 294 300 301 300 300 301 305 308 310 316 322 328 335
275 276 283 284 285 285 289 294 292 286 284 285 288 291 294 293 291 291 293 294 292 294 295 296 294 291 291 293 291 293 294 299 302 301 299 300 302 307 311 316 322 332 336
281 279 278 279 281 285 287 285 285 286 289 295 296 293 294 294 294 295 296 290 292 294 289 291 290 289 289 289 290 292 293 293 297 299 301 300 300 305 311 318 322 331 333
279 282 283 285 286 284 283 283 285 292 295 297 299 299 300 301 298 301 303 301 297 293 291 294 287 287 289 289 290 289 290 291 294 294 293 301 305 308 312 314 320 329 337
286 287 288 287 283 285 286 288 291 295 295 296 297 299 301 303 306 306 303 298 295 297 295 291 292 292 292 290 288 288 288 288 292 292 294 294 301 307 310 313 317 324 335
285 284 279 281 281 280 282 285 290 293 294 295 299 298 299 300 302 299 299 305 307 303 300 299 296 293 291 289 287 286 284 285 288 291 295 298 299 302 306 311 312 317 326
279 271 278 277 279 276 284 292 290 290 293 292 291 298 303 300 298 300 303 305 304 302 301 298 294 292 290 289 287 287 287 288 290 291 291 293 294 296 300 304 307 311 314
270 274 271 279 290 288 289 289 289 288 286 288 298 298 296 299 304 307 306 304 299 296 294 289 287 288 291 290 288 289 291 292 293 293 292 291 290 289 290 292 295 299 304
278 279 282 285 285 286 288 285 283 287 292 295 293 295 302 308 313 313 307 303 301 299 294 290 288 290 291 290 289 291 294 295 295 295 294 292 289 285 283 282 282 283 286
276 278 277 282 282 274 274 276 286 291 294 294 292 299 303 305 306 310 311 306 300 298 298 296 297 296 294 288 288 293 296 299 297 295 295 295 293 286 281 280 277 276 275
277 277 277 276 276 276 272 280 284 289 285 287 292 298 305 306 304 302 308 312 303 295 293 294 296 295 289 287 292 294 295 296 294 294 296 297 294 287 284 284 282 272 270